Location: Astronomy Club of Akron Observatory
(40.9700°N, 81.5606°W)
Time: 00:17:52
(UTC-04:00)

ATLAS 2AS CENTAUR R/B - Visible Passes

Search period start: 27 May 2017 00:00
Search period end: 06 June 2017 00:00
Orbit: 905 x 1307 km, 63.7° (Epoch: 23 May)

Date Brightness Start Highest point End Pass type
(mag) Time Alt. Az. Time Alt. Az. Time Alt. Az.
27 May 4.1 01:26:02 10° NNW 01:33:32 40° NE 01:40:35 10° ESE visible
27 May 3.0 03:17:08 10° NW 03:24:53 56° WSW 03:28:36 30° S visible
27 May 5.4 22:50:02 10° NNW 22:54:06 14° N 22:58:08 10° NE visible
28 May 4.6 00:41:19 10° NNW 00:48:12 29° NE 00:54:45 10° E visible
28 May 2.9 02:32:08 10° NW 02:40:11 84° WSW 02:43:53 34° SSE visible
28 May 4.2 04:25:28 10° WNW 04:29:55 16° WSW 04:31:13 16° WSW visible
28 May 5.5 22:04:27 10° NNW 22:08:10 13° N 22:11:54 10° NNE visible
28 May 5.0 23:56:34 10° NNW 00:02:41 23° NNE 00:08:36 10° ENE visible
29 May 3.2 01:47:16 10° NNW 01:55:19 68° NE 01:59:25 30° SE visible
29 May 3.8 03:39:19 10° NW 03:45:39 27° WSW 03:46:47 26° WSW visible
29 May 5.5 21:18:18 10° NW 21:22:14 14° N 21:26:11 10° NNE visible
29 May 5.2 23:11:46 10° NNW 23:17:02 18° NNE 23:22:10 10° ENE visible
30 May 3.7 01:02:29 10° NNW 01:10:15 48° NE 01:15:09 21° ESE visible
30 May 3.2 02:53:51 10° NW 03:01:13 43° WSW 03:02:31 40° SW visible
30 May 5.3 22:26:46 10° NNW 22:31:13 15° NNE 22:35:37 10° NE visible
31 May 4.3 00:17:45 10° NNW 00:25:01 35° NE 00:31:01 13° E visible
31 May 2.9 02:08:43 10° NW 02:16:38 67° WSW 02:18:24 52° S visible
31 May 4.7 04:03:49 10° W 04:05:47 11° W 04:05:47 11° W visible
31 May 5.3 21:41:27 10° NNW 21:45:20 14° N 21:49:10 10° NE visible
31 May 4.7 23:33:02 10° NNW 23:39:36 26° NNE 23:45:55 10° E visible
01 Jun 2.9 01:23:46 10° NNW 01:31:52 84° NE 01:34:23 47° SE visible
01 Jun 4.2 03:16:28 10° WNW 03:21:46 21° WSW 03:21:46 21° WSW visible
01 Jun 5.0 22:48:15 10° NNW 22:54:02 20° NNE 22:59:38 10° ENE visible
02 Jun 3.4 00:38:57 10° NNW 00:46:55 59° NE 00:50:27 33° ESE visible
02 Jun 3.6 02:30:40 10° NW 02:37:30 33° WSW 02:37:51 33° WSW visible
02 Jun 5.1 22:03:24 10° NNW 22:08:19 17° NNE 22:13:08 10° NE visible
02 Jun 3.9 23:54:11 10° NNW 00:01:47 42° NE 00:06:36 20° ESE visible
03 Jun 3.1 01:45:22 10° NW 01:53:00 52° WSW 01:54:00 49° SW visible
03 Jun 5.2 21:18:18 10° NNW 21:22:28 14° N 21:26:35 10° NE visible
03 Jun 4.4 23:09:28 10° NNW 23:16:28 31° NE 23:22:49 11° E visible
04 Jun 2.9 01:00:19 10° NW 01:08:21 78° WSW 01:10:13 55° SSE visible
04 Jun 4.6 02:54:02 10° WNW 02:57:37 15° W 02:57:37 15° W visible
04 Jun 4.7 22:24:44 10° NNW 22:30:59 24° NNE 22:37:01 10° E visible
05 Jun 3.1 00:15:26 10° NNW 00:23:30 73° NE 00:26:29 41° SE visible
05 Jun 4.1 02:07:39 10° NW 02:13:43 25° WSW 02:13:54 25° WSW visible
05 Jun 5.0 21:39:56 10° NNW 21:45:21 19° NNE 21:50:38 10° ENE visible
05 Jun 3.5 23:30:38 10° NNW 23:38:29 51° NE 23:42:49 25° ESE visible
